Regional Weather Roundup
Issued by NWS

Home | Current Version | Previous Version | Graphics & Text | Print | Product List | Glossary On
Versions: 1 2 3 4 5 6 7 8 9 10 11 12 13 14 15 16 17 18 19 20 21 22 23 24 25 26 27 28 29 30 31 32 33 34 35 36 37 38 39 40 41 42 43 44 45 46 47 48 49 50
000
ASUS45 KABQ 250401
RWRNM
NEW MEXICO REGIONAL WEATHER ROUNDUP
NATIONAL WEATHER SERVICE ALBUQUERQUE NM
1000 PM MDT MON JUL 24 2017

NOTE: "FAIR" MEANS FEW OR NO CLOUDS BELOW 12,000 FEET AGL WITH NO
       SIGNIFICANT WEATHER OR OBSTRUCTIONS TO VISION.

      THIS PRODUCT IS RELEASED AS TWO VERSIONS.  ONE VERSION NEAR
      THE TOP OF THE HOUR CONTAINING PRELIMINARY DATA FROM ALBUQUERQUE
      AND OTHER STATIONS.  A FINAL VERSION WITH ADDITIONAL DATA IS
      ISSUED ABOUT 10 MINUTES AFTER THE HOUR.

NMZ501-503-504-510>518-250500-
NORTHWEST PLATEAU/NORTHCENTRAL MOUNTAINS

CITY           SKY/WX    TMP DP  RH WIND       PRES   REMARKS
FARMINGTON     CLOUDY    66  61  84 NE18      30.18R
LOS ALAMOS     MOCLDY    72  53  50 S8        30.29R
SANTA FE       CLOUDY    70  64  81 S6        30.23R
TAOS           CLOUDY    64  52  63 NE7       30.29R
ANGEL FIRE     CLOUDY    58  55  90 CALM      30.42R

$$
NMZ402-403-502-505>509-250500-
WESTCENTRAL MOUNTAINS/SOUTHWEST MOUNTAINS

CITY           SKY/WX    TMP DP  RH WIND       PRES   REMARKS
GALLUP         FAIR      62  61  96 CALM      30.21S
GRANTS         FAIR      63  58  84 SW3       30.26R
SILVER CITY    FAIR      68  63  84 N5        30.17S

$$
NMZ407-409-411-412-250500-
SOUTHERN DESERTS

CITY           SKY/WX    TMP DP  RH WIND       PRES   REMARKS
DEMING         FAIR      76  64  66 W6        30.10R
LAS CRUCES     FAIR      73  68  83 W5        30.11R
HOLLOMAN AFB   MOCLDY    85  61  44 SE5       30.08R
ALAMOGORDO     FAIR      81  59  47 SE6       30.08R
T OR C         FAIR      77  57  50 NW5       30.12R

$$
NMZ519>523-250500-
CENTRAL VALLEYS/CENTRAL HIGHLANDS

CITY           SKY/WX    TMP DP  RH WIND       PRES   REMARKS
ALBUQUERQUE    MOCLDY    80  57  45 SE6       30.15R
DOUBLE EAGLE   PTCLDY    75  55  50 SW7       30.18R
CLINES CORNERS FAIR      68  53  58 S9        30.30R
BELEN          NOT AVBL
SOCORRO        FAIR      77  62  60 S5        30.11R

$$
NMZ524>526-539-540-250500-
SOUTHCENTRAL MOUNTAINS

CITY           SKY/WX    TMP DP  RH WIND       PRES   REMARKS
RUIDOSO        NOT AVBL

$$
NMZ527>531-250500-
NORTHEAST HIGHLANDS/NORTHEAST PLAINS

CITY           SKY/WX    TMP DP  RH WIND       PRES   REMARKS
RATON          FAIR      70  55  59 SW8       30.23R
CLAYTON        FAIR      70  60  70 S9        30.14R

$$
NMZ532>537-250500-
EASTCENTRAL PLAINS

CITY           SKY/WX    TMP DP  RH WIND       PRES   REMARKS
SANTA ROSA     FAIR      81  54  40 SE13      30.11R
TUCUMCARI      FAIR      81  62  52 S13       30.05R
CANNON AFB     FAIR      76  62  62 SE15      30.13R
CLOVIS AIRPORT FAIR      72  63  73 S10       30.13R

$$
NMZ028-029-538-250500-
SOUTHEAST PLAINS

CITY           SKY/WX    TMP DP  RH WIND       PRES   REMARKS
ROSWELL        FAIR      84  58  40 SE13      30.04R
ARTESIA        FAIR      84  63  48 SE10      30.04R
CARLSBAD       FAIR      83  65  54 S5        30.02R
HOBBS          FAIR      81  61  50 E7        30.10R


$$




USA.gov is the U.S. government's official web portal to all federal, state and local government web resources and services.